Regional Weather Roundup
Issued by NWS Glasgow, MT

Home | Current Version | Previous Version | Text Only | Print | Product List | Glossary On
Versions: 1 2 3 4 5 6 7 8 9 10 11 12 13 14 15 16 17 18 19 20 21 22 23 24 25 26 27
000
ASUS45 KGGW 270415
RWRGGW
HOURLY REGIONAL WEATHER ROUNDUP FOR NORTHEAST MONTANA
NATIONAL WEATHER SERVICE GLASGOW MONTANA
1000 PM MDT MON JUN 26 2017

NOTE: "FAIR" INDICATES FEW OR NO CLOUDS BELOW 12,000 FEET WITH NO
SIGNIFICANT WEATHER AND/OR OBSTRUCTIONS TO VISISBILITY.

NORTHEAST MONTANA


CITY           SKY/WX    TMP DP  RH WIND       PRES   REMARKS
GLASGOW        MOCLDY    78  32  18 SE9       29.77R
PLENTYWOOD       N/A     70  39  32 SE12        N/A
WOLF POINT     MOCLDY    74  37  26 E5        29.77S
JORDAN           N/A     79  33  19 E5        29.78R
WINNETT          N/A     75  37  25 S5          N/A
SIDNEY         PTCLDY    74  41  30 S13       29.83F
GLENDIVE       MOCLDY    76  38  25 SE14G21   29.83F
MALTA            N/A     74  51  44 SE12G26     N/A

FORT PECK REPORTS


CITY           SKY/WX    TMP DP  RH WIND       PRES   REMARKS
FORT PECK        N/A     78  43  28 SE20        N/A
THE PINES        N/A     77  38  24 CALM        N/A

SOUTHEAST MONTANA


CITY           SKY/WX    TMP DP  RH WIND       PRES   REMARKS
BILLINGS       PTCLDY    80  44  27 S8        29.78F
MILES CITY     CLOUDY    78  38  23 SE15G30   29.79S
BAKER          PTCLDY    71  37  28 SE25G36   29.90F
LIVINGSTON     PTCLDY    74  40  29 NW16      29.85R

CENTRAL MONTANA


CITY           SKY/WX    TMP DP  RH WIND       PRES   REMARKS
HAVRE          CLOUDY    71  53  52 E3        29.69R
LEWISTOWN      PTCLDY    75  46  35 NE3       29.80S
GREAT FALLS    CLOUDY    72  46  39 N9        29.77R
CUT BANK       MOCLDY    71  44  37 W15       29.77S
HELENA         CLOUDY    84  40  21 W24G37    29.79R
BUTTE          LGT RAIN  63  52  67 VRB5      30.03R
BOZEMAN        PTCLDY    68  48  48 NE8       29.85R

WESTERN MONTANA


CITY           SKY/WX    TMP DP  RH WIND       PRES   REMARKS
MISSOULA       MOCLDY    77  42  28 W8        29.81R
KALISPELL      NOT AVBL

NORTH DAKOTA


CITY           SKY/WX    TMP DP  RH WIND       PRES   REMARKS
WILLISTON      CLOUDY    72  43  35 SE8       29.85F
DICKINSON      PTCLDY    64  36  35 SE16      29.93S
MINOT          CLEAR     64  44  48 SE10      29.92F
BISMARCK       CLEAR     60  45  57 SE8       30.00F

SOUTHERN SASKATCHEWAN


CITY           SKY/WX    TMP DP  RH WIND       PRES   REMARKS
REGINA         MOCLDY    66  46  48 SE17      29.78S
ESTEVAN        CLOUDY    64  45  48 SE14G21   29.86F
SWIFT CURRENT  CLEAR     70  43  37 S18G25    29.66F





USA.gov is the U.S. government's official web portal to all federal, state and local government web resources and services.